TimeCDT,TemperatureF,Dew PointF,Humidity,Sea Level PressureIn,VisibilityMPH,Wind Direction,Wind SpeedMPH,Gust SpeedMPH,PrecipitationIn,Events,Conditions,WindDirDegrees,DateUTC
12:54 AM,64.9,46.0,50,29.75,10.0,NW,3.5,-,N/A,,Clear,320,2013-05-15 05:54:00
1:54 AM,63.0,39.9,43,29.77,10.0,NNW,8.1,-,N/A,,Clear,340,2013-05-15 06:54:00
2:54 AM,63.0,39.0,41,29.78,10.0,North,6.9,-,N/A,,Clear,360,2013-05-15 07:54:00
3:54 AM,59.0,39.9,49,29.80,10.0,NNW,9.2,-,N/A,,Clear,340,2013-05-15 08:54:00
4:54 AM,60.1,42.1,51,29.84,10.0,North,10.4,-,N/A,,Clear,360,2013-05-15 09:54:00
5:54 AM,57.0,42.1,57,29.84,10.0,North,8.1,-,N/A,,Clear,10,2013-05-15 10:54:00
6:54 AM,59.0,44.1,58,29.86,9.0,North,11.5,-,N/A,,Clear,360,2013-05-15 11:54:00
7:54 AM,64.9,45.0,48,29.88,7.0,North,11.5,-,N/A,,Clear,360,2013-05-15 12:54:00
8:54 AM,69.1,43.0,39,29.90,10.0,NNE,18.4,24.2,N/A,,Clear,30,2013-05-15 13:54:00
9:54 AM,72.0,39.9,31,29.91,-9999.0,ENE,18.4,24.2,0.10,,Clear,60,2013-05-15 14:54:00
10:54 AM,75.9,37.0,24,29.90,10.0,NE,17.3,24.2,N/A,,Clear,50,2013-05-15 15:54:00
11:54 AM,80.1,36.0,20,29.89,9.0,NE,19.6,26.5,N/A,,Clear,50,2013-05-15 16:54:00
12:54 PM,82.9,39.0,21,29.86,10.0,East,17.3,25.3,N/A,,Clear,80,2013-05-15 17:54:00
1:54 PM,82.9,37.0,19,29.84,8.0,ENE,15.0,-,N/A,,Clear,70,2013-05-15 18:54:00
2:54 PM,84.9,39.0,20,29.82,10.0,East,11.5,19.6,N/A,,Clear,90,2013-05-15 19:54:00
3:54 PM,84.9,37.9,19,29.81,10.0,NNE,18.4,24.2,N/A,,Clear,30,2013-05-15 20:54:00
4:54 PM,84.9,39.0,20,29.81,10.0,ENE,12.7,20.7,N/A,,Clear,60,2013-05-15 21:54:00
5:54 PM,84.0,39.0,20,29.81,10.0,ENE,11.5,-,N/A,,Clear,70,2013-05-15 22:54:00
6:54 PM,84.0,37.9,19,29.79,10.0,ENE,13.8,-,N/A,,Clear,70,2013-05-15 23:54:00
7:54 PM,81.0,37.9,21,29.79,10.0,East,10.4,-,N/A,,Clear,80,2013-05-16 00:54:00
8:54 PM,75.0,39.9,28,29.78,9.0,ESE,8.1,-,N/A,,Clear,110,2013-05-16 01:54:00
9:54 PM,70.0,39.9,33,29.81,10.0,ENE,6.9,-,N/A,,Clear,70,2013-05-16 02:54:00
10:54 PM,63.0,39.9,43,29.82,8.0,NE,3.5,-,N/A,,Clear,50,2013-05-16 03:54:00
11:54 PM,59.0,42.1,53,29.84,10.0,NNW,3.5,-,N/A,,Clear,330,2013-05-16 04:54:00